Regional Weather Roundup
Issued by NWS Little Rock, AR

Home | Current Version | Previous Version | Text Only | Print | Product List | Glossary On
Versions: 1 2 3 4 5 6 7 8 9 10 11 12 13 14 15 16 17 18 19 20 21 22 23 24 25 26 27 28 29 30 31 32 33 34 35 36 37 38 39 40 41 42 43 44 45 46 47 48 49 50
000
ASUS44 KLZK 232305
RWRLZK

WEATHER ROUNDUP FOR ARKANSAS
NATIONAL WEATHER SERVICE LITTLE ROCK AR
600 PM CDT MON APR 23 2018

NOTE: "FAIR" INDICATES FEW OR NO CLOUDS BELOW 12,000 FEET WITH NO
SIGNIFICANT WEATHER AND/OR OBSTRUCTIONS TO VISIBILITY.

ARZ001-003-010-029-240000-
NORTHWEST ARKANSAS

CITY           SKY/WX    TMP DP  RH WIND       PRES   REMARKS
FAYETTEVILLE   CLOUDY    68  43  40 N14G21    29.95S
FORT SMITH     SUNNY     74  48  39 N15       29.93S
HARRISON       CLOUDY    63  46  54 N14G24    29.95R
BENTONVILLE    CLOUDY    68  43  40 N16       29.98R
ROGERS         CLOUDY    67  42  40 N9        29.97S
SILOAM SPGS    MOSUNNY   70  48  45 N13       29.97S
HIGHFILL       MOSUNNY   68  43  40 N16G23    29.97R
$$

ARZ004-005-016-240000-
NORTH CENTRAL ARKANSAS

CITY           SKY/WX    TMP DP  RH WIND       PRES   REMARKS
BATESVILLE     LGT RAIN  56  54  93 NW5       29.92R FOG
FLIPPIN        CLOUDY    64  52  64 N9        29.93R
MTN HOME       CLOUDY    62  52  69 VRB5      29.92R
$$

ARZ040-041-240000-
WEST CENTRAL ARKANSAS

CITY           SKY/WX    TMP DP  RH WIND       PRES   REMARKS
MENA           PTSUNNY   70  54  56 W10       29.96S
MOUNT IDA      PTSUNNY   69  54  58 NW9       29.90S
$$

ARZ009-017-025-026-028-240000-
NORTHEAST ARKANSAS

CITY           SKY/WX    TMP DP  RH WIND       PRES   REMARKS
CORNING        CLOUDY    59  55  88 CALM      29.90R
JONESBORO      LGT RAIN  56  55  97 CALM      29.89R FOG
NEWPORT        CLOUDY    55  54  94 NW7       29.91R FOG
WALNUT RIDGE   CLOUDY    56  55  97 NE6       29.89S
BLYTHEVILLE    LGT RAIN  58  54  86 CALM      29.89S
$$

ARZ022-023-033-042-044-240000-
CENTRAL ARKANSAS

CITY           SKY/WX    TMP DP  RH WIND       PRES   REMARKS
LITTLE ROCK    CLOUDY    62  57  83 S5        29.91R
N LITTLE ROCK    N/A     61  57  85 CALM      29.88S
JACKSONVILLE   CLOUDY    61  54  77 E7        29.90R
CONWAY         CLOUDY    66  57  72 CALM      29.89S
SEARCY         CLOUDY    60  55  83 CALM      29.91S
HOT SPRINGS    CLOUDY    70  54  56 NW9       29.91S
RUSSELLVILLE   CLOUDY    68  52  56 NW6       29.90R
CLINTON        CLOUDY    59  55  88 CALM      29.92R HAZE
$$

ARZ036-240000-
EAST ARKANSAS

CITY           SKY/WX    TMP DP  RH WIND       PRES   REMARKS
WEST MEMPHIS   LGT RAIN  57  55  93 VRB3      29.89R
$$

ARZ050-053-066-070-073-240000-
SOUTHWEST ARKANSAS

CITY           SKY/WX    TMP DP  RH WIND       PRES   REMARKS
ARKADELPHIA    FAIR      72  55  55 NW7       29.91S
CAMDEN         PTSUNNY   72  52  49 W7        29.91S
TEXARKANA      PTSUNNY   69  56  62 NW14      29.94S
EL DORADO      CLOUDY    67  59  75 NW3       29.93R
DE QUEEN       CLOUDY    70  56  61 NW9       29.93R
$$

ARZ056-057-069-240000-
SOUTHEAST ARKANSAS

CITY           SKY/WX    TMP DP  RH WIND       PRES   REMARKS
PINE BLUFF     CLOUDY    60  56  86 N5        29.92R
STUTTGART      CLOUDY    59  55  87 N8        29.91R
MONTICELLO     CLOUDY    64  56  75 W3        29.91S

$$





USA.gov is the U.S. government's official web portal to all federal, state and local government web resources and services.